Flag for U.S.A. Weather past 2 weeks in Carson City, Nevada, U.S.A.

Now
45 °F

Passing clouds.


Feels Like: 40 °F
Forecast: 31 / 60 °F
Wind: 9 mph from Northwest

Location: Reno Tahoe International Airport

Current Time: Apr 26, 2015 at 3:03:50 AM

Latest Report: Apr 26, 2015 at 1:55 AM


Visibility: 10 mi

Pressure: 29.97 "Hg

Humidity: 56%

Dew point: 30 °F

Location of Carson CityLocation

Historic Weather in Carson City — Graph

°F

Carson City temperature yesterday

Maximum temperature yesterday: 55 °F (at 2:55 PM)
Minimum temperature yesterday: 40 °F (at 5:55 AM)
Average temperature yesterday: 47 °F

Past Weeks' High & Low Weather Summary

 TemperatureHumidityPressure
High79 °F (Apr 20, 3:55 PM)89% (Apr 25, 8:55 AM)30.32 "Hg (Apr 25, 8:55 AM)
Low28 °F (Apr 15, 6:55 AM)5% (Apr 17, 5:55 PM)29.64 "Hg (Apr 23, 4:55 PM)
Average54 °F34%29.94 "Hg
* Reported Apr 11 1:55 AM — Apr 26 1:55 AM, Carson City, Weather by CustomWeather, © 2015

Note: Actual official high and low records may vary slightly from our data, if they occured in-between our weather recording intervals... More about our weather records

Advertising

Carson City weather history for previous 24 hours

 ConditionsComfort  
Time TempWeatherWind HumidityBarometerVisibility
1:55 AM
Sun, Apr 26
45 °FPassing clouds.9 mph56%29.97 "Hg10 mi
12:55 AM46 °FPassing clouds.9 mph54%29.95 "Hg10 mi
11:55 PM
Sat, Apr 25
47 °FPartly cloudy.8 mph54%29.94 "Hg10 mi
10:55 PM47 °FPassing clouds.14 mph54%29.94 "Hg10 mi
9:55 PM48 °FPartly cloudy.13 mph52%29.93 "Hg10 mi
8:55 PM50 °FPartly cloudy.7 mph41%29.92 "Hg10 mi
7:55 PM51 °FBroken clouds.12 mph38%29.89 "Hg10 mi
6:55 PM52 °FBroken clouds.16 mph37%29.85 "Hg10 mi
5:55 PM55 °FPartly sunny.20 mph30%29.82 "Hg10 mi
4:55 PM55 °FPartly sunny.16 mph34%29.81 "Hg10 mi
3:55 PM54 °FPartly sunny.16 mph33%29.80 "Hg10 mi
2:55 PM55 °FBroken clouds.17 mph35%29.80 "Hg10 mi
1:55 PM48 °FLight rain. Partly sunny.13 mph59%29.83 "Hg10 mi
12:55 PM51 °FBroken clouds.13 mph48%29.80 "Hg10 mi
11:55 AM50 °FPartly sunny.16 mph46%29.81 "Hg10 mi
10:55 AM46 °FPartly sunny.12 mph66%29.83 "Hg10 mi
9:55 AM42 °FMore clouds than sun.13 mph76%29.81 "Hg10 mi
8:55 AM40 °FMostly cloudy.16 mph89%29.80 "Hg10 mi
7:55 AM41 °FLight rain. Mostly cloudy.13 mph82%29.76 "Hg10 mi
6:55 AM42 °FOvercast.7 mph82%29.74 "Hg10 mi
5:55 AM40 °FOvercast.5 mph86%29.72 "Hg10 mi
4:55 AM41 °FLight rain. Mostly cloudy.6 mph86%29.72 "Hg10 mi
3:55 AM43 °FLight rain. Mostly cloudy.6 mph82%29.70 "Hg10 mi
Weather by CustomWeather, © 2015

See weather overviewHow to use our weather pages